| time (UTC) | temp F | wind direction | speed MPH | gust MPH | rain 1hr in | rain 24hr in | rain mn in | humidity % | barometer mb |
| 20260504210005 | 50 | 286 | 1.0 | 7.0 | 0.00 | 0.00 | 0.00 | 61 | 996.7 |
| 20260504205424 | 50 | 289 | 3.0 | 9.0 | 0.00 | 0.00 | 0.00 | 61 | 996.6 |
| 20260504204503 | 51 | 282 | 4.0 | 8.0 | 0.00 | 0.00 | 0.00 | 58 | 997.0 |
| 20260504203605 | 51 | 260 | 3.0 | 11.0 | 0.00 | 0.00 | 0.00 | 53 | 997.1 |
| 20260504202705 | 52 | 247 | 5.0 | 21.0 | 0.00 | 0.00 | 0.00 | 51 | 997.2 |
| 20260504201804 | 52 | 245 | 6.0 | 14.0 | 0.00 | 0.00 | 0.00 | 45 | 996.9 |
| 20260504200927 | 52 | 230 | 10.0 | 11.0 | 0.00 | 0.00 | 0.00 | 43 | 996.9 |
| 20260504200003 | 51 | 242 | 7.0 | 11.0 | 0.00 | 0.00 | 0.00 | 42 | 997.0 |
| 20260504195403 | 50 | 230 | 4.0 | 7.0 | 0.00 | 0.00 | 0.00 | 41 | 997.1 |
| 20260504194503 | 50 | 201 | 3.0 | 7.0 | 0.00 | 0.00 | 0.00 | 40 | 996.9 |
| 20260504193603 | 51 | 205 | 3.0 | 7.0 | 0.00 | 0.00 | 0.00 | 39 | 997.0 |
| 20260504192705 | 51 | 230 | 2.0 | 4.0 | 0.00 | 0.00 | 0.00 | 38 | 997.1 |
| 20260504191803 | 51 | 243 | 2.0 | 2.0 | 0.00 | 0.00 | 0.00 | 37 | 997.1 |
| 20260504190906 | 52 | 233 | 2.0 | 4.0 | 0.00 | 0.00 | 0.00 | 36 | 997.2 |
| 20260504190004 | 53 | 227 | 2.0 | 4.0 | 0.00 | 0.00 | 0.00 | 35 | 997.1 |
| 20260504185404 | 53 | 226 | 2.0 | 4.0 | 0.00 | 0.00 | 0.00 | 33 | 997.0 |
| 20260504184505 | 54 | 240 | 2.0 | 4.0 | 0.00 | 0.00 | 0.00 | 32 | 997.2 |
| 20260504183603 | 55 | 257 | 2.0 | 9.0 | 0.00 | 0.00 | 0.00 | 32 | 997.3 |
| 20260504182703 | 55 | 237 | 5.0 | 11.0 | 0.00 | 0.00 | 0.00 | 30 | 997.3 |
| 20260504181803 | 56 | 256 | 4.0 | 11.0 | 0.00 | 0.00 | 0.00 | 30 | 997.3 |
| 20260504180904 | 56 | 259 | 4.0 | 9.0 | 0.00 | 0.00 | 0.00 | 29 | 997.4 |
| 20260504180004 | 56 | 265 | 4.0 | 11.0 | 0.00 | 0.00 | 0.00 | 28 | 997.2 |
| 20260504175403 | 57 | 241 | 4.0 | 11.0 | 0.00 | 0.00 | 0.00 | 29 | 997.2 |
| 20260504174505 | 58 | 281 | 4.0 | 11.0 | 0.00 | 0.00 | 0.00 | 28 | 997.4 |
| 20260504173603 | 59 | 250 | 2.0 | 9.0 | 0.00 | 0.00 | 0.00 | 32 | 997.1 |
| 20260504172726 | 59 | 259 | 6.0 | 13.0 | 0.00 | 0.00 | 0.00 | 31 | 997.2 |
| 20260504171803 | 59 | 271 | 7.0 | 13.0 | 0.00 | 0.00 | 0.00 | 31 | 997.1 |
| 20260504170905 | 59 | 263 | 7.0 | 14.0 | 0.00 | 0.00 | 0.00 | 30 | 997.1 |
| 20260504150903 | 57 | 254 | 2.0 | 11.0 | 0.00 | 0.00 | 0.00 | 50 | 996.9 |
| 20260504140903 | 58 | 261 | 4.0 | 13.0 | 0.00 | 0.00 | 0.00 | 53 | 997.3 |
| 20260504081803 | 50 | 269 | 3.0 | 9.0 | 0.00 | 0.00 | 0.00 | 79 | 998.7 |
| 20260504080903 | 50 | 263 | 4.0 | 7.0 | 0.00 | 0.00 | 0.00 | 79 | 998.6 |
| 20260504050005 | 44 | 159 | 2.0 | 4.0 | 0.00 | 0.00 | 0.00 | 96 | 1000.1 |
| 20260504045403 | 43 | 150 | 2.0 | 4.0 | 0.00 | 0.00 | 0.00 | 96 | 1000.1 |
| 20260504044503 | 43 | 135 | 2.0 | 4.0 | 0.00 | 0.00 | 0.00 | 97 | 1000.3 |
| 20260504043603 | 43 | 139 | 1.0 | 2.0 | 0.00 | 0.00 | 0.00 | 98 | 1000.2 |
| 20260504042704 | 43 | 157 | 0.0 | 2.0 | 0.00 | 0.00 | 0.00 | 98 | 1000.7 |
| 20260504041803 | 43 | 157 | 2.0 | 4.0 | 0.00 | 0.00 | 0.00 | 98 | 1000.8 |
| 20260504040903 | 43 | 157 | 2.0 | 2.0 | 0.00 | 0.00 | 0.00 | 98 | 1000.7 |
| 20260504040003 | 43 | 155 | 1.0 | 2.0 | 0.00 | 0.00 | 0.00 | 98 | 1001.0 |
| 20260504035403 | 43 | 146 | 1.0 | 4.0 | 0.00 | 0.00 | 0.00 | 98 | 1000.9 |
| 20260504034503 | 43 | 136 | 2.0 | 4.0 | 0.00 | 0.00 | 0.00 | 98 | 1000.9 |
| 20260504033603 | 43 | 151 | 2.0 | 4.0 | 0.00 | 0.00 | 0.00 | 97 | 1000.9 |
| 20260504032724 | 43 | 147 | 2.0 | 4.0 | 0.00 | 0.00 | 0.00 | 97 | 1001.0 |
| 20260504031803 | 43 | 148 | 2.0 | 4.0 | 0.00 | 0.00 | 0.00 | 97 | 1001.1 |
| 20260504030903 | 43 | 135 | 1.0 | 4.0 | 0.00 | 0.00 | 0.00 | 96 | 1001.0 |
| 20260504030003 | 43 | 135 | 2.0 | 4.0 | 0.00 | 0.00 | 0.00 | 96 | 1001.3 |
| 20260504025425 | 43 | 135 | 1.0 | 2.0 | 0.00 | 0.00 | 0.00 | 95 | 1001.6 |
| 20260504024503 | 43 | 135 | 0.0 | 4.0 | 0.00 | 0.01 | 0.00 | 96 | 1001.6 |
| 20260504023604 | 43 | 135 | 2.0 | 2.0 | 0.00 | 0.01 | 0.00 | 95 | 1001.5 |
| 20260504022703 | 43 | 135 | 1.0 | 2.0 | 0.00 | 0.02 | 0.00 | 95 | 1001.7 |
| 20260504021803 | 43 | 135 | 0.0 | 2.0 | 0.00 | 0.04 | 0.00 | 95 | 1001.7 |
| 20260504020903 | 43 | 135 | 0.0 | 2.0 | 0.00 | 0.04 | 0.00 | 95 | 1001.8 |
| 20260504020003 | 43 | 135 | 1.0 | 2.0 | 0.00 | 0.04 | 0.00 | 95 | 1002.0 |
| 20260504015403 | 43 | 135 | 2.0 | 4.0 | 0.00 | 0.04 | 0.00 | 94 | 1001.8 |
| 20260504014503 | 43 | 150 | 2.0 | 2.0 | 0.00 | 0.04 | 0.00 | 94 | 1001.9 |
| 20260504013626 | 43 | 157 | 2.0 | 4.0 | 0.00 | 0.04 | 0.00 | 94 | 1002.0 |
| 20260504012703 | 44 | 185 | 2.0 | 4.0 | 0.00 | 0.04 | 0.00 | 94 | 1002.3 |
| 20260504011804 | 44 | 193 | 3.0 | 4.0 | 0.00 | 0.04 | 0.00 | 94 | 1002.3 |
| 20260504010903 | 44 | 202 | 1.0 | 4.0 | 0.00 | 0.04 | 0.00 | 94 | 1002.4 |
| 20260504010004 | 44 | 225 | 2.0 | 4.0 | 0.00 | 0.04 | 0.00 | 94 | 1002.3 |
| 20260504005403 | 43 | 232 | 3.0 | 4.0 | 0.00 | 0.04 | 0.00 | 93 | 1002.4 |
| 20260504004503 | 44 | 254 | 2.0 | 6.0 | 0.00 | 0.04 | 0.00 | 93 | 1002.6 |
| 20260504003604 | 43 | 227 | 3.0 | 9.0 | 0.00 | 0.04 | 0.00 | 94 | 1002.7 |
| 20260504002703 | 44 | 231 | 4.0 | 6.0 | 0.00 | 0.04 | 0.00 | 93 | 1002.7 |
| 20260504001803 | 44 | 188 | 3.0 | 6.0 | 0.00 | 0.05 | 0.00 | 93 | 1002.6 |
| 20260504000924 | 44 | 165 | 3.0 | 6.0 | 0.00 | 0.05 | 0.00 | 93 | 1003.0 |
| 20260504000003 | 44 | 203 | 4.0 | 6.0 | 0.00 | 0.05 | 0.00 | 92 | 1002.8 |
| 20260503235403 | 44 | 240 | 2.0 | 6.0 | 0.00 | 0.05 | 0.00 | 92 | 1003.1 |
| 20260503234505 | 44 | 215 | 4.0 | 6.0 | 0.00 | 0.05 | 0.00 | 92 | 1003.4 |
| 20260503233603 | 44 | 212 | 2.0 | 7.0 | 0.00 | 0.05 | 0.00 | 92 | 1003.2 |
| 20260503232703 | 44 | 185 | 2.0 | 4.0 | 0.00 | 0.06 | 0.00 | 92 | 1003.4 |
| 20260503231804 | 44 | 157 | 2.0 | 4.0 | 0.00 | 0.06 | 0.00 | 92 | 1003.3 |
| 20260503230903 | 44 | 159 | 2.0 | 4.0 | 0.00 | 0.07 | 0.00 | 92 | 1003.4 |
| 20260503230003 | 44 | 180 | 1.0 | 2.0 | 0.00 | 0.07 | 0.00 | 91 | 1003.5 |
| 20260503225403 | 44 | 166 | 2.0 | 2.0 | 0.00 | 0.07 | 0.00 | 91 | 1003.5 |
| 20260503224525 | 44 | 149 | 2.0 | 2.0 | 0.00 | 0.08 | 0.00 | 91 | 1003.5 |
| 20260503223603 | 44 | 157 | 0.0 | 4.0 | 0.00 | 0.08 | 0.00 | 91 | 1003.6 |
| 20260503222726 | 44 | 167 | 2.0 | 4.0 | 0.00 | 0.08 | 0.00 | 91 | 1003.7 |
| 20260503221803 | 44 | 173 | 2.0 | 4.0 | 0.00 | 0.08 | 0.00 | 91 | 1003.6 |
| 20260503220903 | 44 | 172 | 3.0 | 7.0 | 0.00 | 0.08 | 0.00 | 90 | 1003.7 |
| 20260503220024 | 44 | 176 | 2.0 | 4.0 | 0.00 | 0.08 | 0.00 | 90 | 1004.0 |
| 20260503215426 | 44 | 157 | 2.0 | 2.0 | 0.00 | 0.08 | 0.08 | 90 | 1003.9 |
| 20260503214504 | 44 | 157 | 1.0 | 2.0 | 0.00 | 0.08 | 0.08 | 90 | 1004.1 |
| 20260503213603 | 44 | 157 | 0.0 | 2.0 | 0.00 | 0.08 | 0.08 | 90 | 1004.2 |
| 20260503212704 | 44 | 159 | 2.0 | 4.0 | 0.00 | 0.08 | 0.08 | 89 | 1004.2 |
| 20260503211803 | 44 | 170 | 2.0 | 4.0 | 0.00 | 0.08 | 0.08 | 89 | 1004.6 |
| 20260503210924 | 44 | 191 | 2.0 | 6.0 | 0.00 | 0.08 | 0.08 | 89 | 1004.6 |